Stations météo

réclame
Mon MeteoGroup
Koblenz/Falkensteinkaserne, Allemagne (10516): Température de l'air & dewpoint: 12.11.2019 18:00:00 - 18.11.2019 18:00:00 (CET)Koblenz/Falkensteinkaserne, Allemagne (10516): Vitesse du vent: 12.11.2019 18:00:00 - 18.11.2019 18:00:00 (CET)Koblenz/Falkensteinkaserne, Allemagne (10516): Direction du vent: 12.11.2019 18:00:00 - 18.11.2019 18:00:00 (CET)Koblenz/Falkensteinkaserne, Allemagne (10516): reduced air pressure: 12.11.2019 18:00:00 - 18.11.2019 18:00:00 (CET)Koblenz/Falkensteinkaserne, Allemagne (10516): visibility: 12.11.2019 18:00:00 - 18.11.2019 18:00:00 (CET)
Date & Time tt [°C] td [°C] ff [km/h] ff [knt] dd ppp [hPa] vv [km]
18.11.2019 18:00:00 4,7 2,5 7 4 SSW 1009,7 8
18.11.2019 17:00:00 4,7 2,3 7 4 S 1009,4 9
18.11.2019 16:00:00 5,0 2,6 7 4 S 1009,0 9
18.11.2019 15:00:00 5,1 2,8 7 4 SSW 1008,5 9
18.11.2019 14:00:00 5,2 3,0 7 4 N 1008,1 9
18.11.2019 13:00:00 5,0 3,2 4 2 N 1007,9 7
18.11.2019 12:00:00 4,6 3,2 7 4 N 1008,0 5
18.11.2019 11:00:00 4,5 3,3 4 2 N 1007,9 4,5
18.11.2019 10:00:00 4,1 2,9 4 2 N 1007,8 4,0
18.11.2019 09:00:00 3,9 2,8 4 2 N 1007,4 4,5
18.11.2019 08:00:00 3,5 2,6 4 2 N 1006,7 5
18.11.2019 07:00:00 3,5 2,6 7 4 NW 1006,3 -
18.11.2019 06:00:00 3,7 2,9 4 2 WNW 1006,5 -
18.11.2019 05:00:00 3,7 2,8 4 2 NW 1005,6 -
18.11.2019 04:00:00 3,7 2,7 7 4 NW 1005,5 -
18.11.2019 03:00:00 3,7 2,7 7 4 WNW 1005,3 -
18.11.2019 02:00:00 3,7 2,6 11 6 WNW 1005,5 -
18.11.2019 01:00:00 3,8 2,9 11 6 WNW 1005,2 -
18.11.2019 00:00:00 4,1 3,2 7 4 WNW 1005,3 -
17.11.2019 23:00:00 4,4 3,2 11 6 NW 1005,1 -
17.11.2019 22:00:00 4,6 3,5 11 6 NW 1005,2 -
17.11.2019 21:00:00 4,3 3,4 7 4 NW 1005,5 -
17.11.2019 20:00:00 4,2 3,3 11 6 WNW 1005,7 -
17.11.2019 19:00:00 4,6 3,6 7 4 NW 1005,6 -
17.11.2019 18:00:00 3,8 2,8 7 4 WNW 1006,1 -
17.11.2019 17:00:00 4,1 2,8 11 6 NW 1006,5 -
17.11.2019 16:00:00 4,4 2,9 7 4 NW 1007,7 -
17.11.2019 15:00:00 4,8 2,6 7 4 NW 1008,1 -
17.11.2019 14:00:00 4,9 2,6 4 2 NW 1009,1 -
17.11.2019 13:00:00 4,1 3,2 4 2 NW 1009,1 -
17.11.2019 12:00:00 3,4 2,9 7 4 NW 1010,2 -
17.11.2019 11:00:00 2,6 2,1 4 2 NW 1011,5 -
17.11.2019 10:00:00 1,9 1,4 0 0 N 1012,1 -
17.11.2019 09:00:00 1,6 1,1 4 2 NNW 1012,6 -
17.11.2019 08:00:00 1,3 0,8 4 2 NW 1012,6 -
17.11.2019 07:00:00 1,3 0,7 4 2 NNW 1012,9 -
17.11.2019 06:00:00 0,9 0,3 4 2 N 1013,3 -
17.11.2019 05:00:00 0,5 -0,1 7 4 N 1013,1 -
17.11.2019 04:00:00 -0,1 -0,7 7 4 N 1013,0 -
17.11.2019 03:00:00 -0,7 -1,3 4 2 N 1014,1 -
17.11.2019 02:00:00 0,1 -0,5 4 2 N 1013,9 -
17.11.2019 01:00:00 -0,6 -1,4 4 2 N 1014,1 -
17.11.2019 00:00:00 0,3 -0,5 4 2 N 1013,6 -
16.11.2019 23:00:00 1,0 0,0 4 2 N 1013,4 -
16.11.2019 22:00:00 2,8 1,7 4 2 N 1013,0 -
16.11.2019 21:00:00 1,7 0,5 4 2 WNW 1012,8 -
16.11.2019 20:00:00 3,6 1,2 4 2 N 1012,9 -
16.11.2019 19:00:00 4,3 1,7 11 6 SE 1012,5 -
16.11.2019 18:00:00 4,5 1,6 4 2 N 1011,6 -
16.11.2019 17:00:00 5,8 1,2 4 2 N 1010,8 -
16.11.2019 16:00:00 7,6 1,0 4 2 SSE 1010,5 -
16.11.2019 15:00:00 7,6 1,6 4 2 N 1010,5 -
16.11.2019 14:00:00 6,1 1,4 7 4 N 1010,4 -
16.11.2019 13:00:00 5,1 0,7 4 2 N 1010,7 -
16.11.2019 12:00:00 2,1 1,3 4 2 SSW 1010,9 -
16.11.2019 11:00:00 0,7 0,1 7 4 N 1010,5 -
16.11.2019 10:00:00 0,2 -0,4 7 4 N 1010,0 -
16.11.2019 09:00:00 0,2 -0,4 4 2 N 1009,4 -
16.11.2019 08:00:00 0,8 0,1 7 4 SSW 1008,5 -
16.11.2019 07:00:00 1,3 0,5 7 4 N 1007,8 -
16.11.2019 06:00:00 1,0 -0,1 4 2 W 1006,9 -
16.11.2019 05:00:00 2,7 1,4 4 2 N 1006,4 -
16.11.2019 04:00:00 2,9 1,7 4 2 N 1005,9 -
16.11.2019 03:00:00 2,9 1,6 4 2 N 1006,0 -
16.11.2019 02:00:00 3,1 1,4 4 2 NW 1006,0 -
16.11.2019 01:00:00 3,8 1,9 4 2 N 1006,1 -
16.11.2019 00:00:00 4,2 1,7 7 4 N 1006,2 -
15.11.2019 23:00:00 3,9 1,9 4 2 SSE 1006,0 -
15.11.2019 22:00:00 3,6 1,5 4 2 N 1005,5 -
15.11.2019 21:00:00 4,4 1,3 4 2 N 1004,5 -
15.11.2019 20:00:00 5,1 1,6 7 4 E 1003,9 -
15.11.2019 19:00:00 5,5 1,5 4 2 SE 1003,9 18
15.11.2019 18:00:00 5,6 1,4 4 2 N 1003,4 20
15.11.2019 17:00:00 6,4 1,2 7 4 N 1002,7 20
15.11.2019 16:00:00 7,2 1,2 7 4 SSE 1002,3 20
15.11.2019 15:00:00 7,3 1,0 7 4 SE 1001,7 20
15.11.2019 14:00:00 6,7 1,0 7 4 SE 1001,3 20
15.11.2019 13:00:00 6,2 0,7 7 4 SE 1001,2 18
15.11.2019 12:00:00 6,0 0,4 7 4 SE 1000,5 18
15.11.2019 11:00:00 5,4 0,3 7 4 SSE 1000,5 18
15.11.2019 10:00:00 4,9 -0,2 4 2 SSW 999,1 18
15.11.2019 09:00:00 4,5 -0,6 7 4 ENE 997,3 15
15.11.2019 08:00:00 4,3 -0,6 7 4 E 998,0 15
15.11.2019 07:00:00 4,2 -0,7 11 6 ENE 997,7 15
15.11.2019 06:00:00 4,2 -0,6 7 4 ENE 998,6 -
15.11.2019 05:00:00 4,0 -0,1 4 2 N 999,0 -
15.11.2019 04:00:00 4,0 -0,5 4 2 SE 999,7 -
15.11.2019 03:00:00 4,8 -0,2 11 6 NE 1000,3 -
15.11.2019 02:00:00 4,3 0,4 4 2 NE 1001,5 -
15.11.2019 01:00:00 4,2 0,6 7 4 NNE 1001,9 -
15.11.2019 00:00:00 4,4 0,6 7 4 NNE 1002,3 -
14.11.2019 23:00:00 3,1 1,5 4 2 N 1002,4 -
14.11.2019 22:00:00 2,8 0,9 4 2 WSW 1002,8 -
14.11.2019 21:00:00 3,7 0,3 4 2 NNW 1003,0 20
14.11.2019 20:00:00 4,2 0,7 4 2 N 1003,2 20
14.11.2019 19:00:00 5,7 0,3 4 2 N 1003,4 20
14.11.2019 18:00:00 6,2 -1,0 4 2 N 1003,0 20
14.11.2019 17:00:00 7,0 -1,0 7 4 N 1003,0 20
14.11.2019 16:00:00 8,1 -1,3 7 4 SE 1003,2 20
14.11.2019 15:00:00 9,0 -1,7 7 4 SE 1002,5 20
14.11.2019 14:00:00 8,9 -0,9 7 4 SSE 1002,9 20
14.11.2019 13:00:00 8,8 -1,3 11 6 SSE 1003,1 20
14.11.2019 12:00:00 8,5 -0,3 11 6 SE 1003,0 20
14.11.2019 11:00:00 7,0 1,0 7 4 E 1003,3 20
14.11.2019 10:00:00 6,2 1,0 7 4 ESE 1003,1 15
14.11.2019 09:00:00 5,9 1,7 7 4 SSE 1003,2 15
14.11.2019 08:00:00 5,6 1,5 11 6 SE 1002,9 15
14.11.2019 07:00:00 5,4 2,1 7 4 SE 1002,5 15
14.11.2019 06:00:00 5,9 2,2 7 4 SE 1002,2 -
14.11.2019 05:00:00 5,8 2,5 7 4 SE 1002,0 -
14.11.2019 04:00:00 6,2 2,5 11 6 SE 1002,4 -
14.11.2019 03:00:00 6,3 2,4 11 6 SE 1002,6 -
14.11.2019 02:00:00 6,1 2,4 7 4 SE 1003,0 -
14.11.2019 01:00:00 6,0 2,2 7 4 N 1003,4 -
14.11.2019 00:00:00 6,0 1,8 7 4 N 1003,8 -
13.11.2019 23:00:00 6,0 2,3 7 4 SSE 1004,1 -
13.11.2019 22:00:00 6,1 2,3 7 4 SSE 1004,1 -
13.11.2019 21:00:00 6,4 2,2 7 4 SE 1004,4 20
13.11.2019 20:00:00 6,3 2,3 7 4 N 1004,7 18
13.11.2019 19:00:00 6,3 2,2 4 2 N 1004,5 18
13.11.2019 18:00:00 6,3 2,3 4 2 N 1004,5 15
13.11.2019 17:00:00 6,2 2,3 7 4 SW 1004,3 15
13.11.2019 16:00:00 6,2 2,2 7 4 SW 1004,2 15
13.11.2019 15:00:00 6,0 1,9 11 6 SSW 1003,9 15
13.11.2019 14:00:00 6,0 1,8 11 6 SSW 1003,8 15
13.11.2019 13:00:00 6,0 1,6 11 6 SW 1003,9 15
13.11.2019 12:00:00 5,7 1,6 11 6 SSW 1003,9 15
13.11.2019 11:00:00 5,4 1,4 11 6 SSW 1003,9 15
13.11.2019 10:00:00 5,2 1,4 11 6 SW 1003,5 15
13.11.2019 09:00:00 4,5 0,7 7 4 S 1003,6 15
13.11.2019 08:00:00 4,4 0,7 7 4 SSE 1003,2 15
13.11.2019 07:00:00 4,4 0,7 7 4 SSE 1002,7 15
13.11.2019 06:00:00 4,4 0,8 7 4 SSE 1002,6 -
13.11.2019 05:00:00 4,7 0,6 7 4 S 1002,4 -
13.11.2019 04:00:00 4,4 0,3 7 4 SSE 1002,4 -
13.11.2019 03:00:00 3,9 0,6 4 2 S 1002,7 -
13.11.2019 02:00:00 4,5 0,8 7 4 SSE 1003,2 -
13.11.2019 01:00:00 4,8 0,9 7 4 S 1003,8 -
13.11.2019 00:00:00 4,8 1,2 7 4 SSE 1003,5 -
12.11.2019 23:00:00 4,5 1,5 7 4 SSW 1003,1 -
12.11.2019 22:00:00 3,5 0,8 4 2 NE 1003,6 -
12.11.2019 21:00:00 4,1 1,3 4 2 N 1003,6 25
12.11.2019 20:00:00 5,1 1,4 7 4 S 1003,8 25
12.11.2019 19:00:00 5,7 1,7 4 2 N 1004,0 25
12.11.2019 18:00:00 6,6 1,0 11 6 SSW 1004,1 30

tt = Température de l'air
td = dewpoint
ff = Vitesse du vent
dd = Direction du vent
ppp = reduced air pressure
vv = visibility

stations d'obs. à proximité